Time,TemperatureF,DewpointF,PressureIn,WindDirection,WindDirectionDegrees,WindSpeedMPH,WindSpeedGustMPH,Humidity,HourlyPrecipIn,Conditions,Clouds,dailyrainin,SoftwareType,DateUTC
2013-01-04 00:00:00,15.5,11.5,30.32,West,278,7.0,11.0,84,0.00,,---,0.00,VWS V14.00,2013-01-04 06:00:00,
2013-01-04 00:03:00,14.5,10.6,30.32,West,276,4.0,11.0,84,0.00,,---,0.00,VWS V14.00,2013-01-04 06:03:00,
2013-01-04 00:08:00,14.4,10.5,30.32,West,280,5.0,11.0,84,0.00,,---,0.00,VWS V14.00,2013-01-04 06:08:00,
2013-01-04 00:13:00,14.2,10.3,30.31,WNW,288,5.0,11.0,84,0.00,,---,0.00,VWS V14.00,2013-01-04 06:13:00,
2013-01-04 00:18:00,14.0,10.1,30.31,West,279,2.0,7.0,84,0.00,,---,0.00,VWS V14.00,2013-01-04 06:18:00,
2013-01-04 00:23:00,13.8,10.1,30.31,West,274,7.0,7.0,85,0.00,,---,0.00,VWS V14.00,2013-01-04 06:23:00,
2013-01-04 00:28:00,13.7,10.0,30.31,West,276,5.0,7.0,85,0.00,,---,0.00,VWS V14.00,2013-01-04 06:28:00,
2013-01-04 00:30:00,14.8,10.9,30.32,WNW,297,5.0,11.0,84,0.00,,---,0.00,VWS V14.00,2013-01-04 06:30:00,
2013-01-04 00:33:00,13.6,9.9,30.31,West,276,6.0,8.0,85,0.00,,---,0.00,VWS V14.00,2013-01-04 06:33:00,
2013-01-04 00:38:00,13.4,9.7,30.31,West,275,2.0,8.0,85,0.00,,---,0.00,VWS V14.00,2013-01-04 06:38:00,
2013-01-04 00:43:00,13.3,9.6,30.31,West,269,3.0,8.0,85,0.00,,---,0.00,VWS V14.00,2013-01-04 06:43:00,
2013-01-04 00:48:00,13.2,9.6,30.31,West,274,5.0,8.0,85,0.00,,---,0.00,VWS V14.00,2013-01-04 06:48:00,
2013-01-04 00:53:00,13.1,9.4,30.31,West,274,4.0,8.0,85,0.00,,---,0.00,VWS V14.00,2013-01-04 06:53:00,
2013-01-04 00:58:00,13.0,9.4,30.31,West,280,4.0,9.0,85,0.00,,---,0.00,VWS V14.00,2013-01-04 06:58:00,
2013-01-04 01:00:00,14.2,10.3,30.31,WNW,288,5.0,11.0,84,0.00,,---,0.00,VWS V14.00,2013-01-04 07:00:00,
2013-01-04 01:03:00,13.0,9.6,30.31,West,274,4.0,9.0,86,0.00,,---,0.00,VWS V14.00,2013-01-04 07:03:00,
2013-01-04 01:08:00,12.9,9.2,30.31,West,267,1.0,9.0,85,0.00,,---,0.00,VWS V14.00,2013-01-04 07:08:00,
2013-01-04 01:13:00,12.8,9.4,30.30,West,271,4.0,9.0,86,0.00,,---,0.00,VWS V14.00,2013-01-04 07:13:00,
2013-01-04 01:18:00,12.7,9.3,30.30,West,273,2.0,5.0,86,0.00,,---,0.00,VWS V14.00,2013-01-04 07:18:00,
2013-01-04 01:23:00,12.7,9.3,30.30,West,277,2.0,6.0,86,0.00,,---,0.00,VWS V14.00,2013-01-04 07:23:00,
2013-01-04 01:28:00,12.6,9.2,30.30,West,276,2.0,6.0,86,0.00,,---,0.00,VWS V14.00,2013-01-04 07:28:00,
2013-01-04 01:30:00,13.3,9.6,30.31,West,269,3.0,8.0,85,0.00,,---,0.00,VWS V14.00,2013-01-04 07:30:00,
2013-01-04 01:33:00,12.6,9.2,30.30,West,275,5.0,6.0,86,0.00,,---,0.00,VWS V14.00,2013-01-04 07:33:00,
2013-01-04 01:38:00,12.5,9.1,30.30,West,272,2.0,6.0,86,0.00,,---,0.00,VWS V14.00,2013-01-04 07:38:00,
2013-01-04 01:43:00,12.4,9.0,30.31,West,266,6.0,8.0,86,0.00,,---,0.00,VWS V14.00,2013-01-04 07:43:00,
2013-01-04 01:48:00,12.4,9.0,30.31,WSW,255,5.0,7.0,86,0.00,,---,0.00,VWS V14.00,2013-01-04 07:48:00,
2013-01-04 01:53:00,12.4,9.0,30.31,WSW,254,5.0,8.0,86,0.00,,---,0.00,VWS V14.00,2013-01-04 07:53:00,
2013-01-04 01:58:00,12.3,8.9,30.31,West,260,3.0,8.0,86,0.00,,---,0.00,VWS V14.00,2013-01-04 07:58:00,
2013-01-04 02:00:00,12.8,9.4,30.30,West,270,4.0,9.0,86,0.00,,---,0.00,VWS V14.00,2013-01-04 08:00:00,
2013-01-04 02:03:00,12.2,8.8,30.31,WSW,254,0.0,8.0,86,0.00,,---,0.00,VWS V14.00,2013-01-04 08:03:00,
2013-01-04 02:08:00,12.2,8.8,30.31,West,266,3.0,8.0,86,0.00,,---,0.00,VWS V14.00,2013-01-04 08:08:00,
2013-01-04 02:13:00,12.2,8.8,30.30,West,266,2.0,8.0,86,0.00,,---,0.00,VWS V14.00,2013-01-04 08:13:00,
2013-01-04 02:18:00,12.1,8.7,30.30,WSW,256,2.0,7.0,86,0.00,,---,0.00,VWS V14.00,2013-01-04 08:18:00,
2013-01-04 02:23:00,12.1,8.7,30.30,WSW,257,5.0,7.0,86,0.00,,---,0.00,VWS V14.00,2013-01-04 08:23:00,
2013-01-04 02:28:00,12.1,8.7,30.31,WSW,251,5.0,7.0,86,0.00,,---,0.00,VWS V14.00,2013-01-04 08:28:00,
2013-01-04 02:30:00,12.4,9.0,30.31,West,265,4.0,8.0,86,0.00,,---,0.00,VWS V14.00,2013-01-04 08:30:00,
2013-01-04 02:33:00,12.1,8.7,30.31,WSW,252,2.0,7.0,86,0.00,,---,0.00,VWS V14.00,2013-01-04 08:33:00,
2013-01-04 02:38:00,12.1,8.7,30.31,WSW,252,2.0,7.0,86,0.00,,---,0.00,VWS V14.00,2013-01-04 08:38:00,
2013-01-04 02:43:00,12.0,8.6,30.29,WSW,252,0.0,7.0,86,0.00,,---,0.00,VWS V14.00,2013-01-04 08:43:00,
2013-01-04 02:48:00,12.0,8.6,30.29,WSW,252,4.0,4.0,86,0.00,,---,0.00,VWS V14.00,2013-01-04 08:48:00,
2013-01-04 02:53:00,12.0,8.6,30.29,WSW,252,3.0,5.0,86,0.00,,---,0.00,VWS V14.00,2013-01-04 08:53:00,
2013-01-04 02:58:00,11.9,8.5,30.30,WSW,248,6.0,9.0,86,0.00,,---,0.00,VWS V14.00,2013-01-04 08:58:00,
2013-01-04 03:00:00,12.2,8.8,30.30,West,266,2.0,8.0,86,0.00,,---,0.00,VWS V14.00,2013-01-04 09:00:00,
2013-01-04 03:03:00,12.1,8.7,30.30,WSW,250,6.0,10.0,86,0.00,,---,0.00,VWS V14.00,2013-01-04 09:03:00,
2013-01-04 03:08:00,12.2,8.8,30.30,WSW,248,9.0,10.0,86,0.00,,---,0.00,VWS V14.00,2013-01-04 09:08:00,
2013-01-04 03:13:00,12.2,8.8,30.30,WSW,252,9.0,12.0,86,0.00,,---,0.00,VWS V14.00,2013-01-04 09:13:00,
2013-01-04 03:18:00,12.2,8.8,30.30,WSW,244,12.0,13.0,86,0.00,,---,0.00,VWS V14.00,2013-01-04 09:18:00,
2013-01-04 03:23:00,12.4,9.0,30.30,WSW,248,13.0,14.0,86,0.00,,---,0.00,VWS V14.00,2013-01-04 09:23:00,
2013-01-04 03:28:00,12.4,9.0,30.30,WSW,245,13.0,14.0,86,0.00,,---,0.00,VWS V14.00,2013-01-04 09:28:00,
2013-01-04 03:30:00,12.0,8.6,30.29,WSW,252,0.0,7.0,86,0.00,,---,0.00,VWS V14.00,2013-01-04 09:30:00,
2013-01-04 03:33:00,12.6,9.2,30.30,WSW,248,14.0,14.0,86,0.00,,---,0.00,VWS V14.00,2013-01-04 09:33:00,
2013-01-04 03:38:00,12.7,9.3,30.30,WSW,237,9.0,15.0,86,0.00,,---,0.00,VWS V14.00,2013-01-04 09:38:00,
2013-01-04 03:43:00,12.7,9.1,30.30,WSW,254,14.0,15.0,85,0.00,,---,0.00,VWS V14.00,2013-01-04 09:43:00,
2013-01-04 03:48:00,12.6,9.0,30.30,WSW,252,7.0,14.0,85,0.00,,---,0.00,VWS V14.00,2013-01-04 09:48:00,
2013-01-04 03:53:00,12.7,9.1,30.30,West,261,5.0,14.0,85,0.00,,---,0.00,VWS V14.00,2013-01-04 09:53:00,
2013-01-04 03:58:00,12.7,9.3,30.29,WSW,252,12.0,14.0,86,0.00,,---,0.00,VWS V14.00,2013-01-04 09:58:00,
2013-01-04 04:00:00,12.2,8.8,30.30,WSW,249,9.0,12.0,86,0.00,,---,0.00,VWS V14.00,2013-01-04 10:00:00,
2013-01-04 04:03:00,12.6,9.0,30.29,WSW,256,10.0,14.0,85,0.00,,---,0.00,VWS V14.00,2013-01-04 10:03:00,
2013-01-04 04:08:00,12.4,8.8,30.29,WSW,255,7.0,14.0,85,0.00,,---,0.00,VWS V14.00,2013-01-04 10:08:00,
2013-01-04 04:13:00,12.3,8.7,30.30,West,267,5.0,14.0,85,0.00,,---,0.00,VWS V14.00,2013-01-04 10:13:00,
2013-01-04 04:18:00,12.2,8.6,30.30,West,264,1.0,8.0,85,0.00,,---,0.00,VWS V14.00,2013-01-04 10:18:00,
2013-01-04 04:23:00,12.1,8.5,30.30,West,270,2.0,8.0,85,0.00,,---,0.00,VWS V14.00,2013-01-04 10:23:00,
2013-01-04 04:28:00,12.1,8.5,30.30,West,270,5.0,8.0,85,0.00,,---,0.00,VWS V14.00,2013-01-04 10:28:00,
2013-01-04 04:30:00,12.7,9.1,30.30,WSW,246,14.0,15.0,85,0.00,,---,0.00,VWS V14.00,2013-01-04 10:30:00,
2013-01-04 04:33:00,12.0,8.4,30.30,West,266,5.0,9.0,85,0.00,,---,0.00,VWS V14.00,2013-01-04 10:33:00,
2013-01-04 04:37:00,11.8,8.4,30.30,West,264,4.0,9.0,86,0.00,,---,0.00,VWS V14.00,2013-01-04 10:37:00,
2013-01-04 04:43:00,11.7,8.3,30.31,West,271,5.0,9.0,86,0.00,,---,0.00,VWS V14.00,2013-01-04 10:43:00,
2013-01-04 04:48:00,11.7,8.3,30.31,West,278,5.0,9.0,86,0.00,,---,0.00,VWS V14.00,2013-01-04 10:48:00,
2013-01-04 04:53:00,11.7,8.3,30.31,West,269,3.0,9.0,86,0.00,,---,0.00,VWS V14.00,2013-01-04 10:53:00,
2013-01-04 04:58:00,11.7,8.3,30.31,West,271,6.0,9.0,86,0.00,,---,0.00,VWS V14.00,2013-01-04 10:58:00,
2013-01-04 05:00:00,12.3,8.7,30.30,West,267,3.0,14.0,85,0.00,,---,0.00,VWS V14.00,2013-01-04 11:00:00,
2013-01-04 05:03:00,11.8,8.4,30.31,WSW,257,4.0,9.0,86,0.00,,---,0.00,VWS V14.00,2013-01-04 11:03:00,
2013-01-04 05:08:00,11.8,8.4,30.31,West,264,4.0,12.0,86,0.00,,---,0.00,VWS V14.00,2013-01-04 11:08:00,
2013-01-04 05:12:00,11.9,8.5,30.30,WNW,283,7.0,12.0,86,0.00,,---,0.00,VWS V14.00,2013-01-04 11:12:00,
2013-01-04 05:17:00,12.0,8.9,30.30,West,274,10.0,14.0,87,0.00,,---,0.00,VWS V14.00,2013-01-04 11:17:00,
2013-01-04 05:22:00,12.1,9.0,30.30,WSW,248,10.0,14.0,87,0.00,,---,0.00,VWS V14.00,2013-01-04 11:22:00,
2013-01-04 05:27:00,12.3,8.9,30.30,WSW,253,7.0,14.0,86,0.00,,---,0.00,VWS V14.00,2013-01-04 11:27:00,
2013-01-04 05:30:00,11.8,8.4,30.31,West,271,5.0,9.0,86,0.00,,---,0.00,VWS V14.00,2013-01-04 11:30:00,
2013-01-04 05:32:00,12.4,9.0,30.30,West,259,5.0,14.0,86,0.00,,---,0.00,VWS V14.00,2013-01-04 11:32:00,
2013-01-04 05:37:00,12.6,9.5,30.30,WSW,258,8.0,14.0,87,0.00,,---,0.00,VWS V14.00,2013-01-04 11:37:00,
2013-01-04 05:42:00,12.6,9.5,30.30,West,260,8.0,14.0,87,0.00,,---,0.00,VWS V14.00,2013-01-04 11:42:00,
2013-01-04 05:47:00,12.6,9.2,30.30,WSW,256,10.0,11.0,86,0.00,,---,0.00,VWS V14.00,2013-01-04 11:47:00,
2013-01-04 05:52:00,12.4,9.0,30.30,WSW,253,10.0,12.0,86,0.00,,---,0.00,VWS V14.00,2013-01-04 11:52:00,
2013-01-04 05:57:00,12.3,8.9,30.30,WSW,255,5.0,12.0,86,0.00,,---,0.00,VWS V14.00,2013-01-04 11:57:00,
2013-01-04 06:00:00,11.9,8.5,30.30,WSW,258,7.0,12.0,86,0.00,,---,0.00,VWS V14.00,2013-01-04 12:00:00,
2013-01-04 06:02:00,12.3,8.9,30.30,WSW,257,10.0,12.0,86,0.00,,---,0.00,VWS V14.00,2013-01-04 12:02:00,
2013-01-04 06:07:00,12.4,9.0,30.30,West,259,5.0,12.0,86,0.00,,---,0.00,VWS V14.00,2013-01-04 12:07:00,
2013-01-04 06:12:00,12.4,9.0,30.29,WSW,248,10.0,12.0,86,0.00,,---,0.00,VWS V14.00,2013-01-04 12:12:00,
2013-01-04 06:17:00,12.4,9.0,30.29,WSW,255,6.0,11.0,86,0.00,,---,0.00,VWS V14.00,2013-01-04 12:17:00,
2013-01-04 06:22:00,12.5,9.4,30.29,WSW,248,9.0,13.0,87,0.00,,---,0.00,VWS V14.00,2013-01-04 12:22:00,
2013-01-04 06:27:00,12.5,9.4,30.29,WSW,250,7.0,13.0,87,0.00,,---,0.00,VWS V14.00,2013-01-04 12:27:00,
2013-01-04 06:30:00,12.6,9.2,30.30,WSW,252,6.0,14.0,86,0.00,,---,0.00,VWS V14.00,2013-01-04 12:30:00,
2013-01-04 06:32:00,12.5,9.4,30.29,WSW,245,7.0,13.0,87,0.00,,---,0.00,VWS V14.00,2013-01-04 12:32:00,
2013-01-04 06:37:00,12.5,9.4,30.29,WSW,253,10.0,13.0,87,0.00,,---,0.00,VWS V14.00,2013-01-04 12:37:00,
2013-01-04 06:42:00,12.5,9.4,30.29,WSW,243,10.0,14.0,87,0.00,,---,0.00,VWS V14.00,2013-01-04 12:42:00,
2013-01-04 06:47:00,12.6,9.5,30.29,WSW,253,11.0,15.0,87,0.00,,---,0.00,VWS V14.00,2013-01-04 12:47:00,
2013-01-04 06:52:00,12.6,9.5,30.29,WSW,248,11.0,15.0,87,0.00,,---,0.00,VWS V14.00,2013-01-04 12:52:00,
2013-01-04 06:57:00,12.5,9.4,30.29,SW,228,8.0,15.0,87,0.00,,---,0.00,VWS V14.00,2013-01-04 12:57:00,
2013-01-04 07:00:00,12.4,9.0,30.29,West,266,7.0,12.0,86,0.00,,---,0.00,VWS V14.00,2013-01-04 13:00:00,
2013-01-04 07:02:00,12.5,9.4,30.29,WSW,255,12.0,15.0,87,0.00,,---,0.00,VWS V14.00,2013-01-04 13:02:00,
2013-01-04 07:07:00,12.5,9.4,30.29,WSW,255,9.0,15.0,87,0.00,,---,0.00,VWS V14.00,2013-01-04 13:07:00,
2013-01-04 07:12:00,12.5,9.4,30.29,WSW,243,5.0,15.0,87,0.00,,---,0.00,VWS V14.00,2013-01-04 13:12:00,
2013-01-04 07:17:00,12.6,9.5,30.29,WSW,244,14.0,14.0,87,0.00,,---,0.00,VWS V14.00,2013-01-04 13:17:00,
2013-01-04 07:22:00,12.5,9.4,30.29,WSW,246,7.0,14.0,87,0.00,,---,0.00,VWS V14.00,2013-01-04 13:22:00,
2013-01-04 07:27:00,12.3,9.2,30.29,SW,233,7.0,14.0,87,0.00,,---,0.00,VWS V14.00,2013-01-04 13:27:00,
2013-01-04 07:30:00,12.5,9.4,30.29,WSW,249,9.0,14.0,87,0.00,,---,0.00,VWS V14.00,2013-01-04 13:30:00,
2013-01-04 07:32:00,12.2,9.1,30.29,WSW,246,9.0,14.0,87,0.00,,---,0.00,VWS V14.00,2013-01-04 13:32:00,
2013-01-04 07:37:00,12.1,9.0,30.29,WSW,238,10.0,14.0,87,0.00,,---,0.00,VWS V14.00,2013-01-04 13:37:00,
2013-01-04 07:42:00,12.1,9.0,30.29,SW,223,7.0,14.0,87,0.00,,---,0.00,VWS V14.00,2013-01-04 13:42:00,
2013-01-04 07:47:00,12.2,9.1,30.29,WSW,240,8.0,14.0,87,0.00,,---,0.00,VWS V14.00,2013-01-04 13:47:00,
2013-01-04 07:52:00,12.3,9.2,30.29,WSW,250,9.0,15.0,87,0.00,,---,0.00,VWS V14.00,2013-01-04 13:52:00,
2013-01-04 07:57:00,12.5,9.4,30.29,WSW,245,8.0,15.0,87,0.00,,---,0.00,VWS V14.00,2013-01-04 13:57:00,
2013-01-04 08:00:00,12.6,9.5,30.29,WSW,238,7.0,15.0,87,0.00,,---,0.00,VWS V14.00,2013-01-04 14:00:00,
2013-01-04 08:02:00,12.5,9.4,30.29,WSW,257,10.0,15.0,87,0.00,,---,0.00,VWS V14.00,2013-01-04 14:02:00,
2013-01-04 08:07:00,12.8,9.7,30.29,WSW,257,11.0,15.0,87,0.00,,---,0.00,VWS V14.00,2013-01-04 14:07:00,
2013-01-04 08:12:00,13.1,10.0,30.30,SW,234,9.0,15.0,87,0.00,,---,0.00,VWS V14.00,2013-01-04 14:12:00,
2013-01-04 08:17:00,13.5,10.4,30.30,WSW,244,11.0,16.0,87,0.00,,---,0.00,VWS V14.00,2013-01-04 14:17:00,
2013-01-04 08:22:00,13.9,10.8,30.30,WSW,248,11.0,16.0,87,0.00,,---,0.00,VWS V14.00,2013-01-04 14:22:00,
2013-01-04 08:27:00,14.1,10.9,30.29,WSW,247,7.0,16.0,87,0.00,,---,0.00,VWS V14.00,2013-01-04 14:27:00,
2013-01-04 08:30:00,12.1,9.0,30.29,SW,233,8.0,14.0,87,0.00,,---,0.00,VWS V14.00,2013-01-04 14:30:00,
2013-01-04 08:32:00,14.5,11.3,30.29,WSW,247,10.0,16.0,87,0.00,,---,0.00,VWS V14.00,2013-01-04 14:32:00,
2013-01-04 08:37:00,14.9,11.7,30.29,West,266,13.0,16.0,87,0.00,,---,0.00,VWS V14.00,2013-01-04 14:37:00,
2013-01-04 08:42:00,15.2,12.0,30.29,WSW,238,13.0,18.0,87,0.00,,---,0.00,VWS V14.00,2013-01-04 14:42:00,
2013-01-04 08:47:00,15.5,12.3,30.29,SW,231,11.0,16.0,87,0.00,,---,0.00,VWS V14.00,2013-01-04 14:47:00,
2013-01-04 08:52:00,15.9,12.7,30.29,West,262,8.0,18.0,87,0.00,,---,0.00,VWS V14.00,2013-01-04 14:52:00,
2013-01-04 08:57:00,16.4,13.2,30.30,West,262,11.0,18.0,87,0.00,,---,0.00,VWS V14.00,2013-01-04 14:57:00,
2013-01-04 09:00:00,13.1,10.0,30.30,WSW,244,10.0,15.0,87,0.00,,---,0.00,VWS V14.00,2013-01-04 15:00:00,
2013-01-04 09:02:00,16.8,13.6,30.30,WSW,255,7.0,18.0,87,0.00,,---,0.00,VWS V14.00,2013-01-04 15:02:00,
2013-01-04 09:07:00,17.3,13.8,30.30,West,264,10.0,18.0,86,0.00,,---,0.00,VWS V14.00,2013-01-04 15:07:00,
2013-01-04 09:12:00,17.6,14.1,30.29,West,259,10.0,19.0,86,0.00,,---,0.00,VWS V14.00,2013-01-04 15:12:00,
2013-01-04 09:17:00,18.1,14.9,30.29,WSW,251,7.0,18.0,87,0.00,,---,0.00,VWS V14.00,2013-01-04 15:17:00,
2013-01-04 09:22:00,18.5,15.0,30.29,WSW,248,12.0,18.0,86,0.00,,---,0.00,VWS V14.00,2013-01-04 15:22:00,
2013-01-04 09:27:00,18.9,15.4,30.30,West,260,8.0,18.0,86,0.00,,---,0.00,VWS V14.00,2013-01-04 15:27:00,
2013-01-04 09:30:00,15.2,12.0,30.29,WSW,245,9.0,18.0,87,0.00,,---,0.00,VWS V14.00,2013-01-04 15:30:00,
2013-01-04 09:32:00,19.1,15.6,30.30,WSW,247,12.0,19.0,86,0.00,,---,0.00,VWS V14.00,2013-01-04 15:32:00,
2013-01-04 09:37:00,19.7,16.2,30.30,WSW,254,12.0,19.0,86,0.00,,---,0.00,VWS V14.00,2013-01-04 15:37:00,
2013-01-04 09:42:00,20.0,16.5,30.30,West,260,10.0,19.0,86,0.00,,---,0.00,VWS V14.00,2013-01-04 15:42:00,
2013-01-04 09:47:00,20.6,17.1,30.30,West,266,13.0,16.0,86,0.00,,---,0.00,VWS V14.00,2013-01-04 15:47:00,
2013-01-04 09:52:00,21.2,17.4,30.30,West,279,10.0,16.0,85,0.00,,---,0.00,VWS V14.00,2013-01-04 15:52:00,
2013-01-04 09:57:00,21.7,17.9,30.30,West,262,13.0,16.0,85,0.00,,---,0.00,VWS V14.00,2013-01-04 15:57:00,
2013-01-04 10:00:00,17.6,14.1,30.29,West,259,13.0,19.0,86,0.00,,---,0.00,VWS V14.00,2013-01-04 16:00:00,
2013-01-04 10:02:00,22.0,18.2,30.30,WSW,258,11.0,18.0,85,0.00,,---,0.00,VWS V14.00,2013-01-04 16:02:00,
2013-01-04 10:07:00,22.3,18.5,30.30,WSW,253,10.0,18.0,85,0.00,,---,0.00,VWS V14.00,2013-01-04 16:07:00,
2013-01-04 10:12:00,22.6,18.5,30.30,West,265,9.0,18.0,84,0.00,,---,0.00,VWS V14.00,2013-01-04 16:12:00,
2013-01-04 10:17:00,23.1,19.0,30.30,West,265,7.0,14.0,84,0.00,,---,0.00,VWS V14.00,2013-01-04 16:17:00,
2013-01-04 10:22:00,23.6,19.5,30.30,West,260,6.0,16.0,84,0.00,,---,0.00,VWS V14.00,2013-01-04 16:22:00,
2013-01-04 10:27:00,24.1,19.7,30.30,WSW,255,12.0,16.0,83,0.00,,---,0.00,VWS V14.00,2013-01-04 16:27:00,
2013-01-04 10:30:00,20.1,16.6,30.30,WSW,253,12.0,19.0,86,0.00,,---,0.00,VWS V14.00,2013-01-04 16:30:00,
2013-01-04 10:32:00,24.6,20.2,30.30,West,261,8.0,16.0,83,0.00,,---,0.00,VWS V14.00,2013-01-04 16:32:00,
2013-01-04 10:37:00,24.9,20.2,30.30,WNW,288,10.0,16.0,82,0.00,,---,0.00,VWS V14.00,2013-01-04 16:37:00,
2013-01-04 10:42:00,25.5,20.8,30.29,NW,304,12.0,16.0,82,0.00,,---,0.00,VWS V14.00,2013-01-04 16:42:00,
2013-01-04 10:47:00,25.8,20.8,30.29,WNW,287,8.0,20.0,81,0.00,,---,0.00,VWS V14.00,2013-01-04 16:47:00,
2013-01-04 10:52:00,26.0,21.0,30.29,SW,231,11.0,20.0,81,0.00,,---,0.00,VWS V14.00,2013-01-04 16:52:00,
2013-01-04 10:57:00,26.5,21.5,30.29,West,278,11.0,20.0,81,0.00,,---,0.00,VWS V14.00,2013-01-04 16:57:00,
2013-01-04 11:00:00,22.6,18.5,30.30,West,266,5.0,18.0,84,0.00,,---,0.00,VWS V14.00,2013-01-04 17:00:00,
2013-01-04 11:02:00,26.4,21.1,30.29,WNW,290,11.0,20.0,80,0.00,,---,0.00,VWS V14.00,2013-01-04 17:02:00,
2013-01-04 11:07:00,26.8,21.5,30.29,WSW,248,12.0,20.0,80,0.00,,---,0.00,VWS V14.00,2013-01-04 17:07:00,
2013-01-04 11:12:00,27.3,22.0,30.28,WSW,242,16.0,21.0,80,0.00,,---,0.00,VWS V14.00,2013-01-04 17:12:00,
2013-01-04 11:17:00,27.7,22.0,30.28,West,267,9.0,18.0,79,0.00,,---,0.00,VWS V14.00,2013-01-04 17:17:00,
2013-01-04 11:22:00,28.4,22.7,30.28,West,277,12.0,22.0,79,0.00,,---,0.00,VWS V14.00,2013-01-04 17:22:00,
2013-01-04 11:27:00,28.7,22.7,30.27,WSW,258,8.0,24.0,78,0.00,,---,0.00,VWS V14.00,2013-01-04 17:27:00,
2013-01-04 11:30:00,25.5,20.8,30.29,West,280,13.0,16.0,82,0.00,,---,0.00,VWS V14.00,2013-01-04 17:30:00,
2013-01-04 11:32:00,29.1,23.1,30.27,West,276,13.0,24.0,78,0.00,,---,0.00,VWS V14.00,2013-01-04 17:32:00,
2013-01-04 11:37:00,29.3,23.0,30.27,West,266,8.0,24.0,77,0.00,,---,0.00,VWS V14.00,2013-01-04 17:37:00,
2013-01-04 11:42:00,29.7,23.4,30.27,WSW,257,18.0,24.0,77,0.00,,---,0.00,VWS V14.00,2013-01-04 17:42:00,
2013-01-04 11:47:00,30.2,23.6,30.27,WNW,282,12.0,20.0,76,0.00,,---,0.00,VWS V14.00,2013-01-04 17:47:00,
2013-01-04 11:52:00,30.3,23.7,30.27,West,281,11.0,20.0,76,0.00,,---,0.00,VWS V14.00,2013-01-04 17:52:00,
2013-01-04 11:57:00,30.8,24.1,30.25,West,273,13.0,20.0,76,0.00,,---,0.00,VWS V14.00,2013-01-04 17:57:00,
2013-01-04 12:00:00,27.3,21.7,30.28,WSW,244,15.0,21.0,79,0.00,,---,0.00,VWS V14.00,2013-01-04 18:00:00,
2013-01-04 12:02:00,30.6,23.6,30.25,WSW,251,18.0,21.0,75,0.00,,---,0.00,VWS V14.00,2013-01-04 18:02:00,
2013-01-04 12:07:00,30.8,23.8,30.25,West,259,9.0,22.0,75,0.00,,---,0.00,VWS V14.00,2013-01-04 18:07:00,
2013-01-04 12:12:00,31.2,23.9,30.25,West,259,14.0,23.0,74,0.00,,---,0.00,VWS V14.00,2013-01-04 18:12:00,
2013-01-04 12:17:00,31.1,23.8,30.25,West,278,8.0,21.0,74,0.00,,---,0.00,VWS V14.00,2013-01-04 18:17:00,
2013-01-04 12:22:00,31.7,24.4,30.25,WSW,255,14.0,21.0,74,0.00,,---,0.00,VWS V14.00,2013-01-04 18:22:00,
2013-01-04 12:27:00,31.2,23.9,30.25,WSW,245,11.0,21.0,74,0.00,,---,0.00,VWS V14.00,2013-01-04 18:27:00,
2013-01-04 12:30:00,29.7,23.4,30.27,West,260,11.0,24.0,77,0.00,,---,0.00,VWS V14.00,2013-01-04 18:30:00,
2013-01-04 12:32:00,31.4,23.8,30.25,SW,231,14.0,21.0,73,0.00,,---,0.00,VWS V14.00,2013-01-04 18:32:00,
2013-01-04 12:37:00,31.1,23.5,30.25,WSW,252,18.0,21.0,73,0.00,,---,0.00,VWS V14.00,2013-01-04 18:37:00,
2013-01-04 12:42:00,31.7,24.0,30.25,WSW,257,13.0,21.0,73,0.00,,---,0.00,VWS V14.00,2013-01-04 18:42:00,
2013-01-04 12:47:00,31.4,23.4,30.25,West,264,8.0,21.0,72,0.00,,---,0.00,VWS V14.00,2013-01-04 18:47:00,
2013-01-04 12:52:00,31.6,23.6,30.25,WSW,239,14.0,21.0,72,0.00,,---,0.00,VWS V14.00,2013-01-04 18:52:00,
2013-01-04 12:57:00,32.0,24.0,30.24,WSW,252,11.0,21.0,72,0.00,,---,0.00,VWS V14.00,2013-01-04 18:57:00,
2013-01-04 13:00:00,31.3,24.0,30.25,WSW,252,14.0,23.0,74,0.00,,---,0.00,VWS V14.00,2013-01-04 19:00:00,
2013-01-04 13:02:00,32.2,24.2,30.24,West,259,10.0,21.0,72,0.00,,---,0.00,VWS V14.00,2013-01-04 19:02:00,
2013-01-04 13:07:00,32.5,24.5,30.24,West,259,13.0,21.0,72,0.00,,---,0.00,VWS V14.00,2013-01-04 19:07:00,
2013-01-04 13:12:00,32.6,24.2,30.24,West,267,6.0,21.0,71,0.00,,---,0.00,VWS V14.00,2013-01-04 19:12:00,
2013-01-04 13:17:00,32.4,23.7,30.24,WSW,248,18.0,22.0,70,0.00,,---,0.00,VWS V14.00,2013-01-04 19:17:00,
2013-01-04 13:22:00,32.5,23.8,30.24,West,266,14.0,22.0,70,0.00,,---,0.00,VWS V14.00,2013-01-04 19:22:00,
2013-01-04 13:27:00,32.6,23.9,30.24,WSW,252,14.0,24.0,70,0.00,,---,0.00,VWS V14.00,2013-01-04 19:27:00,
2013-01-04 13:30:00,31.7,24.0,30.25,West,274,15.0,21.0,73,0.00,,---,0.00,VWS V14.00,2013-01-04 19:30:00,
2013-01-04 13:32:00,32.7,24.4,30.24,WSW,248,22.0,24.0,71,0.00,,---,0.00,VWS V14.00,2013-01-04 19:32:00,
2013-01-04 13:37:00,32.7,24.0,30.24,WSW,254,6.0,24.0,70,0.00,,---,0.00,VWS V14.00,2013-01-04 19:37:00,
2013-01-04 13:42:00,32.8,24.1,30.24,WSW,256,13.0,24.0,70,0.00,,---,0.00,VWS V14.00,2013-01-04 19:42:00,
2013-01-04 13:47:00,33.0,24.0,30.24,West,270,8.0,20.0,69,0.00,,---,0.00,VWS V14.00,2013-01-04 19:47:00,
2013-01-04 13:52:00,32.9,24.2,30.24,WSW,254,13.0,20.0,70,0.00,,---,0.00,VWS V14.00,2013-01-04 19:52:00,
2013-01-04 13:57:00,32.9,24.2,30.24,WSW,247,11.0,20.0,70,0.00,,---,0.00,VWS V14.00,2013-01-04 19:57:00,
2013-01-04 14:00:00,32.6,24.2,30.24,WSW,255,12.0,21.0,71,0.00,,---,0.00,VWS V14.00,2013-01-04 20:00:00,
2013-01-04 14:02:00,32.6,23.6,30.24,WSW,257,15.0,22.0,69,0.00,,---,0.00,VWS V14.00,2013-01-04 20:02:00,
2013-01-04 14:07:00,32.6,23.9,30.24,WSW,247,13.0,22.0,70,0.00,,---,0.00,VWS V14.00,2013-01-04 20:07:00,
2013-01-04 14:12:00,32.6,23.9,30.23,WSW,251,11.0,22.0,70,0.00,,---,0.00,VWS V14.00,2013-01-04 20:12:00,
2013-01-04 14:17:00,32.8,24.1,30.23,WSW,243,19.0,22.0,70,0.00,,---,0.00,VWS V14.00,2013-01-04 20:17:00,
2013-01-04 14:22:00,32.9,24.2,30.23,West,259,13.0,22.0,70,0.00,,---,0.00,VWS V14.00,2013-01-04 20:22:00,
2013-01-04 14:27:00,33.1,24.7,30.24,NW,310,10.0,22.0,71,0.00,,---,0.00,VWS V14.00,2013-01-04 20:27:00,
2013-01-04 14:30:00,32.8,24.1,30.24,WSW,252,13.0,24.0,70,0.00,,---,0.00,VWS V14.00,2013-01-04 20:30:00,
2013-01-04 14:32:00,33.0,24.3,30.24,WSW,238,14.0,22.0,70,0.00,,---,0.00,VWS V14.00,2013-01-04 20:32:00,
2013-01-04 14:37:00,32.9,24.2,30.24,West,266,13.0,22.0,70,0.00,,---,0.00,VWS V14.00,2013-01-04 20:37:00,
2013-01-04 14:42:00,32.9,24.2,30.24,West,273,12.0,22.0,70,0.00,,---,0.00,VWS V14.00,2013-01-04 20:42:00,
2013-01-04 14:47:00,33.1,24.4,30.24,West,271,11.0,16.0,70,0.00,,---,0.00,VWS V14.00,2013-01-04 20:47:00,
2013-01-04 14:52:00,33.1,24.4,30.24,WSW,240,11.0,21.0,70,0.00,,---,0.00,VWS V14.00,2013-01-04 20:52:00,
2013-01-04 14:57:00,33.1,24.4,30.24,WSW,253,12.0,21.0,70,0.00,,---,0.00,VWS V14.00,2013-01-04 20:57:00,
2013-01-04 15:00:00,32.6,23.9,30.23,WSW,257,16.0,22.0,70,0.00,,---,0.00,VWS V14.00,2013-01-04 21:00:00,
2013-01-04 15:02:00,33.1,24.4,30.24,WSW,238,11.0,21.0,70,0.00,,---,0.00,VWS V14.00,2013-01-04 21:02:00,
2013-01-04 15:07:00,33.0,24.0,30.24,WSW,245,11.0,21.0,69,0.00,,---,0.00,VWS V14.00,2013-01-04 21:07:00,
2013-01-04 15:12:00,33.0,24.3,30.24,WSW,257,14.0,21.0,70,0.00,,---,0.00,VWS V14.00,2013-01-04 21:12:00,
2013-01-04 15:17:00,32.8,24.1,30.24,WSW,245,15.0,23.0,70,0.00,,---,0.00,VWS V14.00,2013-01-04 21:17:00,
2013-01-04 15:22:00,32.7,24.0,30.24,WSW,240,19.0,24.0,70,0.00,,---,0.00,VWS V14.00,2013-01-04 21:22:00,
2013-01-04 15:27:00,32.7,24.0,30.24,WSW,256,18.0,24.0,70,0.00,,---,0.00,VWS V14.00,2013-01-04 21:27:00,
2013-01-04 15:30:00,32.9,24.2,30.24,WSW,256,9.0,22.0,70,0.00,,---,0.00,VWS V14.00,2013-01-04 21:30:00,
2013-01-04 15:32:00,32.7,24.0,30.24,WSW,258,19.0,24.0,70,0.00,,---,0.00,VWS V14.00,2013-01-04 21:32:00,
2013-01-04 15:37:00,32.8,24.1,30.24,WSW,254,11.0,24.0,70,0.00,,---,0.00,VWS V14.00,2013-01-04 21:37:00,
2013-01-04 15:42:00,32.8,24.1,30.25,WSW,252,10.0,24.0,70,0.00,,---,0.00,VWS V14.00,2013-01-04 21:42:00,
2013-01-04 15:47:00,32.9,24.2,30.25,West,266,16.0,22.0,70,0.00,,---,0.00,VWS V14.00,2013-01-04 21:47:00,
2013-01-04 15:52:00,32.8,24.1,30.25,WSW,253,13.0,23.0,70,0.00,,---,0.00,VWS V14.00,2013-01-04 21:52:00,
2013-01-04 15:57:00,32.8,24.1,30.25,WSW,251,16.0,23.0,70,0.00,,---,0.00,VWS V14.00,2013-01-04 21:57:00,
2013-01-04 16:00:00,33.0,24.3,30.24,WSW,237,16.0,21.0,70,0.00,,---,0.00,VWS V14.00,2013-01-04 22:00:00,
2013-01-04 16:02:00,32.8,24.1,30.25,WSW,253,18.0,23.0,70,0.00,,---,0.00,VWS V14.00,2013-01-04 22:02:00,
2013-01-04 16:07:00,32.8,24.1,30.25,SW,234,15.0,23.0,70,0.00,,---,0.00,VWS V14.00,2013-01-04 22:07:00,
2013-01-04 16:12:00,32.8,24.1,30.25,West,263,16.0,23.0,70,0.00,,---,0.00,VWS V14.00,2013-01-04 22:12:00,
2013-01-04 16:17:00,32.8,24.5,30.25,WSW,253,21.0,21.0,71,0.00,,---,0.00,VWS V14.00,2013-01-04 22:17:00,
2013-01-04 16:22:00,32.8,24.5,30.25,WSW,245,10.0,21.0,71,0.00,,---,0.00,VWS V14.00,2013-01-04 22:22:00,
2013-01-04 16:27:00,32.7,24.4,30.24,WSW,257,14.0,21.0,71,0.00,,---,0.00,VWS V14.00,2013-01-04 22:27:00,
2013-01-04 16:30:00,32.8,24.1,30.25,WSW,257,9.0,24.0,70,0.00,,---,0.00,VWS V14.00,2013-01-04 22:30:00,
2013-01-04 16:32:00,32.5,24.2,30.24,West,260,12.0,21.0,71,0.00,,---,0.00,VWS V14.00,2013-01-04 22:32:00,
2013-01-04 16:37:00,32.4,24.1,30.24,WSW,248,12.0,21.0,71,0.00,,---,0.00,VWS V14.00,2013-01-04 22:37:00,
2013-01-04 16:42:00,32.3,24.3,30.24,WSW,249,12.0,21.0,72,0.00,,---,0.00,VWS V14.00,2013-01-04 22:42:00,
2013-01-04 16:47:00,32.2,24.2,30.24,WSW,255,9.0,16.0,72,0.00,,---,0.00,VWS V14.00,2013-01-04 22:47:00,
2013-01-04 16:52:00,32.0,24.0,30.24,WSW,257,16.0,18.0,72,0.00,,---,0.00,VWS V14.00,2013-01-04 22:52:00,
2013-01-04 16:57:00,31.9,23.9,30.24,WSW,246,10.0,18.0,72,0.00,,---,0.00,VWS V14.00,2013-01-04 22:57:00,
2013-01-04 17:00:00,32.8,24.1,30.25,WSW,258,14.0,23.0,70,0.00,,---,0.00,VWS V14.00,2013-01-04 23:00:00,
2013-01-04 17:02:00,31.8,24.1,30.24,WSW,253,14.0,18.0,73,0.00,,---,0.00,VWS V14.00,2013-01-04 23:02:00,
2013-01-04 17:07:00,31.7,24.0,30.24,WSW,255,12.0,18.0,73,0.00,,---,0.00,VWS V14.00,2013-01-04 23:07:00,
2013-01-04 17:12:00,31.7,24.0,30.24,WSW,248,15.0,18.0,73,0.00,,---,0.00,VWS V14.00,2013-01-04 23:12:00,
2013-01-04 17:17:00,31.6,24.0,30.24,WSW,250,16.0,19.0,73,0.00,,---,0.00,VWS V14.00,2013-01-04 23:17:00,
2013-01-04 17:22:00,31.5,23.9,30.24,West,261,16.0,20.0,73,0.00,,---,0.00,VWS V14.00,2013-01-04 23:22:00,
2013-01-04 17:27:00,31.5,23.9,30.23,WSW,243,9.0,20.0,73,0.00,,---,0.00,VWS V14.00,2013-01-04 23:27:00,
2013-01-04 17:30:00,32.3,24.3,30.24,WSW,250,12.0,21.0,72,0.00,,---,0.00,VWS V14.00,2013-01-04 23:30:00,
2013-01-04 17:32:00,31.5,23.9,30.23,West,260,13.0,20.0,73,0.00,,---,0.00,VWS V14.00,2013-01-04 23:32:00,
2013-01-04 17:37:00,31.4,23.8,30.23,SW,229,11.0,20.0,73,0.00,,---,0.00,VWS V14.00,2013-01-04 23:37:00,
2013-01-04 17:42:00,31.4,23.8,30.24,WSW,252,14.0,21.0,73,0.00,,---,0.00,VWS V14.00,2013-01-04 23:42:00,
2013-01-04 17:47:00,31.4,23.8,30.24,WSW,255,18.0,20.0,73,0.00,,---,0.00,VWS V14.00,2013-01-04 23:47:00,
2013-01-04 17:52:00,31.4,23.8,30.24,WSW,257,18.0,25.0,73,0.00,,---,0.00,VWS V14.00,2013-01-04 23:52:00,
2013-01-04 17:57:00,31.4,23.8,30.24,West,264,6.0,25.0,73,0.00,,---,0.00,VWS V14.00,2013-01-04 23:57:00,
2013-01-04 18:00:00,31.6,24.0,30.24,West,264,11.0,18.0,73,0.00,,---,0.00,VWS V14.00,2013-01-05 00:00:00,
2013-01-04 18:02:00,31.3,24.0,30.24,WSW,253,10.0,25.0,74,0.00,,---,0.00,VWS V14.00,2013-01-05 00:02:00,
2013-01-04 18:07:00,31.2,23.9,30.24,West,260,14.0,25.0,74,0.00,,---,0.00,VWS V14.00,2013-01-05 00:07:00,
2013-01-04 18:12:00,31.2,23.9,30.24,WSW,247,13.0,25.0,74,0.00,,---,0.00,VWS V14.00,2013-01-05 00:12:00,
2013-01-04 18:17:00,31.1,23.8,30.24,WSW,239,9.0,15.0,74,0.00,,---,0.00,VWS V14.00,2013-01-05 00:17:00,
2013-01-04 18:22:00,31.0,23.7,30.24,WSW,243,11.0,15.0,74,0.00,,---,0.00,VWS V14.00,2013-01-05 00:22:00,
2013-01-04 18:27:00,31.0,23.7,30.25,WSW,247,13.0,15.0,74,0.00,,---,0.00,VWS V14.00,2013-01-05 00:27:00,
2013-01-04 18:30:00,31.4,24.1,30.24,WSW,250,16.0,21.0,74,0.00,,---,0.00,VWS V14.00,2013-01-05 00:30:00,
2013-01-04 18:32:00,30.8,23.5,30.25,WSW,241,8.0,15.0,74,0.00,,---,0.00,VWS V14.00,2013-01-05 00:32:00,
2013-01-04 18:37:00,30.8,23.8,30.25,SW,229,6.0,15.0,75,0.00,,---,0.00,VWS V14.00,2013-01-05 00:37:00,
2013-01-04 18:42:00,30.9,23.6,30.25,WSW,251,7.0,16.0,74,0.00,,---,0.00,VWS V14.00,2013-01-05 00:42:00,
2013-01-04 18:47:00,31.0,23.7,30.25,West,266,11.0,18.0,74,0.00,,---,0.00,VWS V14.00,2013-01-05 00:47:00,
2013-01-04 18:52:00,31.0,23.7,30.25,West,259,11.0,18.0,74,0.00,,---,0.00,VWS V14.00,2013-01-05 00:52:00,
2013-01-04 18:57:00,30.9,23.6,30.25,WSW,249,12.0,18.0,74,0.00,,---,0.00,VWS V14.00,2013-01-05 00:57:00,
2013-01-04 19:00:00,31.2,23.9,30.24,WSW,249,15.0,25.0,74,0.00,,---,0.00,VWS V14.00,2013-01-05 01:00:00,
2013-01-04 19:02:00,30.8,23.8,30.25,WSW,238,10.0,18.0,75,0.00,,---,0.00,VWS V14.00,2013-01-05 01:02:00,
2013-01-04 19:07:00,30.8,23.8,30.25,WSW,240,10.0,18.0,75,0.00,,---,0.00,VWS V14.00,2013-01-05 01:07:00,
2013-01-04 19:12:00,30.8,23.8,30.25,WSW,254,14.0,18.0,75,0.00,,---,0.00,VWS V14.00,2013-01-05 01:12:00,
2013-01-04 19:17:00,30.7,23.7,30.25,WSW,240,12.0,15.0,75,0.00,,---,0.00,VWS V14.00,2013-01-05 01:17:00,
2013-01-04 19:22:00,30.7,23.7,30.25,WSW,247,15.0,15.0,75,0.00,,---,0.00,VWS V14.00,2013-01-05 01:22:00,
2013-01-04 19:27:00,30.6,23.6,30.25,West,268,12.0,15.0,75,0.00,,---,0.00,VWS V14.00,2013-01-05 01:27:00,
2013-01-04 19:30:00,30.9,23.9,30.25,WSW,255,13.0,16.0,75,0.00,,---,0.00,VWS V14.00,2013-01-05 01:30:00,
2013-01-04 19:32:00,30.6,23.6,30.25,WSW,243,8.0,15.0,75,0.00,,---,0.00,VWS V14.00,2013-01-05 01:32:00,
2013-01-04 19:37:00,30.5,23.5,30.25,WSW,250,9.0,15.0,75,0.00,,---,0.00,VWS V14.00,2013-01-05 01:37:00,
2013-01-04 19:42:00,30.5,23.5,30.25,WSW,250,15.0,16.0,75,0.00,,---,0.00,VWS V14.00,2013-01-05 01:42:00,
2013-01-04 19:47:00,30.5,23.5,30.25,WSW,242,9.0,15.0,75,0.00,,---,0.00,VWS V14.00,2013-01-05 01:47:00,
2013-01-04 19:52:00,30.4,23.4,30.25,WSW,245,10.0,15.0,75,0.00,,---,0.00,VWS V14.00,2013-01-05 01:52:00,
2013-01-04 19:57:00,30.2,23.2,30.25,WSW,243,11.0,15.0,75,0.00,,---,0.00,VWS V14.00,2013-01-05 01:57:00,
2013-01-04 20:00:00,30.7,23.7,30.25,WSW,255,14.0,18.0,75,0.00,,---,0.00,VWS V14.00,2013-01-05 02:00:00,
2013-01-04 20:02:00,30.2,23.6,30.25,WSW,254,8.0,15.0,76,0.00,,---,0.00,VWS V14.00,2013-01-05 02:02:00,
2013-01-04 20:07:00,30.1,23.5,30.25,WSW,257,10.0,15.0,76,0.00,,---,0.00,VWS V14.00,2013-01-05 02:07:00,
2013-01-04 20:12:00,30.0,23.4,30.25,SW,236,10.0,15.0,76,0.00,,---,0.00,VWS V14.00,2013-01-05 02:12:00,
2013-01-04 20:17:00,29.9,23.3,30.25,WSW,242,11.0,13.0,76,0.00,,---,0.00,VWS V14.00,2013-01-05 02:17:00,
2013-01-04 20:22:00,29.8,23.2,30.25,WSW,240,10.0,15.0,76,0.00,,---,0.00,VWS V14.00,2013-01-05 02:22:00,
2013-01-04 20:27:00,29.7,23.1,30.25,WSW,245,11.0,15.0,76,0.00,,---,0.00,VWS V14.00,2013-01-05 02:27:00,
2013-01-04 20:30:00,30.5,23.5,30.25,WSW,245,11.0,16.0,75,0.00,,---,0.00,VWS V14.00,2013-01-05 02:30:00,
2013-01-04 20:32:00,29.6,23.0,30.25,WSW,252,6.0,15.0,76,0.00,,---,0.00,VWS V14.00,2013-01-05 02:32:00,
2013-01-04 20:37:00,29.5,22.9,30.25,WSW,241,5.0,15.0,76,0.00,,---,0.00,VWS V14.00,2013-01-05 02:37:00,
2013-01-04 20:42:00,29.4,23.1,30.25,SW,229,7.0,15.0,77,0.00,,---,0.00,VWS V14.00,2013-01-05 02:42:00,
2013-01-04 20:47:00,29.3,23.0,30.25,WSW,245,6.0,11.0,77,0.00,,---,0.00,VWS V14.00,2013-01-05 02:47:00,
2013-01-04 20:52:00,29.2,22.9,30.25,WSW,239,7.0,12.0,77,0.00,,---,0.00,VWS V14.00,2013-01-05 02:52:00,
2013-01-04 20:57:00,29.1,22.8,30.25,WSW,245,9.0,12.0,77,0.00,,---,0.00,VWS V14.00,2013-01-05 02:57:00,
2013-01-04 21:00:00,30.0,23.4,30.25,WSW,251,12.0,15.0,76,0.00,,---,0.00,VWS V14.00,2013-01-05 03:00:00,
2013-01-04 21:02:00,29.1,23.1,30.25,WSW,250,8.0,12.0,78,0.00,,---,0.00,VWS V14.00,2013-01-05 03:02:00,
2013-01-04 21:07:00,29.0,22.7,30.25,WSW,256,5.0,12.0,77,0.00,,---,0.00,VWS V14.00,2013-01-05 03:07:00,
2013-01-04 21:12:00,28.8,22.8,30.25,WSW,252,5.0,12.0,78,0.00,,---,0.00,VWS V14.00,2013-01-05 03:12:00,
2013-01-04 21:17:00,28.7,22.7,30.25,WSW,252,0.0,5.0,78,0.00,,---,0.00,VWS V14.00,2013-01-05 03:17:00,
2013-01-04 21:22:00,28.5,22.5,30.25,WSW,252,0.0,5.0,78,0.00,,---,0.00,VWS V14.00,2013-01-05 03:22:00,
2013-01-04 21:27:00,28.4,22.4,30.24,WSW,252,5.0,7.0,78,0.00,,---,0.00,VWS V14.00,2013-01-05 03:27:00,
2013-01-04 21:30:00,29.4,23.1,30.25,WSW,241,7.0,15.0,77,0.00,,---,0.00,VWS V14.00,2013-01-05 03:30:00,
2013-01-04 21:32:00,28.5,22.8,30.24,WSW,248,5.0,8.0,79,0.00,,---,0.00,VWS V14.00,2013-01-05 03:32:00,
2013-01-04 21:37:00,28.5,22.8,30.24,WSW,245,5.0,8.0,79,0.00,,---,0.00,VWS V14.00,2013-01-05 03:37:00,
2013-01-04 21:42:00,28.5,22.8,30.23,WSW,248,5.0,8.0,79,0.00,,---,0.00,VWS V14.00,2013-01-05 03:42:00,
2013-01-04 21:47:00,28.4,22.7,30.23,WSW,240,5.0,8.0,79,0.00,,---,0.00,VWS V14.00,2013-01-05 03:47:00,
2013-01-04 21:52:00,28.3,22.6,30.23,WSW,243,10.0,11.0,79,0.00,,---,0.00,VWS V14.00,2013-01-05 03:52:00,
2013-01-04 21:57:00,28.2,22.5,30.25,WSW,248,12.0,12.0,79,0.00,,---,0.00,VWS V14.00,2013-01-05 03:57:00,
2013-01-04 22:00:00,28.8,22.8,30.25,WSW,252,3.0,12.0,78,0.00,,---,0.00,VWS V14.00,2013-01-05 04:00:00,
2013-01-04 22:02:00,28.2,22.5,30.25,WSW,251,10.0,12.0,79,0.00,,---,0.00,VWS V14.00,2013-01-05 04:02:00,
2013-01-04 22:07:00,28.3,22.6,30.25,WSW,250,10.0,12.0,79,0.00,,---,0.00,VWS V14.00,2013-01-05 04:07:00,
2013-01-04 22:12:00,28.4,22.7,30.25,WSW,252,10.0,14.0,79,0.00,,---,0.00,VWS V14.00,2013-01-05 04:12:00,
2013-01-04 22:17:00,28.5,22.8,30.25,WSW,238,7.0,12.0,79,0.00,,---,0.00,VWS V14.00,2013-01-05 04:17:00,
2013-01-04 22:22:00,28.5,22.8,30.25,SW,234,7.0,12.0,79,0.00,,---,0.00,VWS V14.00,2013-01-05 04:22:00,
2013-01-04 22:27:00,28.4,22.7,30.23,WSW,246,7.0,12.0,79,0.00,,---,0.00,VWS V14.00,2013-01-05 04:27:00,
2013-01-04 22:30:00,28.5,22.8,30.23,WSW,251,6.0,8.0,79,0.00,,---,0.00,VWS V14.00,2013-01-05 04:30:00,
2013-01-04 22:32:00,28.4,22.7,30.23,SW,228,10.0,13.0,79,0.00,,---,0.00,VWS V14.00,2013-01-05 04:32:00,
2013-01-04 22:37:00,28.3,22.6,30.23,WSW,238,13.0,15.0,79,0.00,,---,0.00,VWS V14.00,2013-01-05 04:37:00,
2013-01-04 22:42:00,28.3,22.6,30.23,WSW,248,12.0,15.0,79,0.00,,---,0.00,VWS V14.00,2013-01-05 04:42:00,
2013-01-04 22:47:00,28.3,22.6,30.23,WSW,239,6.0,13.0,79,0.00,,---,0.00,VWS V14.00,2013-01-05 04:47:00,
2013-01-04 22:52:00,28.4,22.7,30.23,WSW,252,7.0,13.0,79,0.00,,---,0.00,VWS V14.00,2013-01-05 04:52:00,
2013-01-04 22:57:00,28.5,22.8,30.23,WSW,257,7.0,13.0,79,0.00,,---,0.00,VWS V14.00,2013-01-05 04:57:00,
2013-01-04 23:00:00,28.5,22.8,30.23,WSW,251,12.0,13.0,79,0.00,,---,0.00,VWS V14.00,2013-01-05 05:00:00,
2013-01-04 23:01:00,28.5,22.8,30.23,WSW,243,10.0,13.0,79,0.00,,---,0.00,VWS V14.00,2013-01-05 05:01:00,
2013-01-04 23:03:00,28.5,22.8,30.23,WSW,246,11.0,13.0,79,0.00,,---,0.00,VWS V14.00,2013-01-05 05:03:00,
2013-01-04 23:08:00,28.6,22.9,30.23,WSW,245,6.0,14.0,79,0.00,,---,0.00,VWS V14.00,2013-01-05 05:08:00,
2013-01-04 23:13:00,28.6,22.9,30.23,WSW,249,11.0,16.0,79,0.00,,---,0.00,VWS V14.00,2013-01-05 05:13:00,
2013-01-04 23:18:00,28.7,23.0,30.23,WSW,237,10.0,15.0,79,0.00,,---,0.00,VWS V14.00,2013-01-05 05:18:00,
2013-01-04 23:23:00,28.5,22.8,30.23,WSW,245,12.0,15.0,79,0.00,,---,0.00,VWS V14.00,2013-01-05 05:23:00,
2013-01-04 23:28:00,28.5,22.8,30.22,WSW,248,9.0,15.0,79,0.00,,---,0.00,VWS V14.00,2013-01-05 05:28:00,
2013-01-04 23:30:00,28.3,22.6,30.23,SW,233,8.0,15.0,79,0.00,,---,0.00,VWS V14.00,2013-01-05 05:30:00,
2013-01-04 23:33:00,28.4,22.7,30.22,WSW,250,10.0,15.0,79,0.00,,---,0.00,VWS V14.00,2013-01-05 05:33:00,
2013-01-04 23:38:00,28.2,22.5,30.22,SW,233,6.0,15.0,79,0.00,,---,0.00,VWS V14.00,2013-01-05 05:38:00,
2013-01-04 23:43:00,28.1,22.4,30.23,SW,234,10.0,10.0,79,0.00,,---,0.00,VWS V14.00,2013-01-05 05:43:00,
2013-01-04 23:48:00,28.0,22.6,30.23,WSW,243,9.0,13.0,80,0.00,,---,0.00,VWS V14.00,2013-01-05 05:48:00,
2013-01-04 23:53:00,27.9,22.5,30.23,WSW,239,8.0,13.0,80,0.00,,---,0.00,VWS V14.00,2013-01-05 05:53:00,
2013-01-04 23:58:00,27.7,22.4,30.23,SW,226,6.0,13.0,80,0.00,,---,0.00,VWS V14.00,2013-01-05 05:58:00,